Location: Göttingen
(51.5413°N, 9.9158°E)
Time: 06:21:02
(UTC+02:00)

Envisat - Pass Details

Date: 24 January 2022
Orbit: 764 x 765 km, 98.2° (Epoch: 25 May)

Event Time Altitude Azimuth Distance (km) Brightness Sun altitude
Rises 04:49:47 0° 18° (NNE) 3,244 6.6 -30.8°
Reaches altitude 10° 04:52:12 10° 25° (NNE) 2,313 5.8 -30.4°
Maximum altitude 04:57:04 44° 98° (E) 1,052 4.0 -29.7°
Drops below altitude 10° 05:01:54 10° 170° (S) 2,297 5.5 -28.9°
Sets 05:04:18 0° 177° (S) 3,219 6.2 -28.5°
